Date String (YYYY-MM-DD hh:mm:ss) UTC,Instrument flags,Ambient pressure (hPa),Sample flow (lpm),Bypass flow (lpm),Sample temperature (°C),Ambient temperature (°C),ASC tube jacket temperature (°C),LED temperature (°C),Box temperature (°C),Sample RH (%),Span deviation,Mass concentration (μg/m³),Mass concentration (μg/m³),Mass concentration (μg/m³)
DateTimeUTC,F1_M11,P_M11,Q1_M11,Q2_M11,T1_M11,T2_M11,T3_M11,T4_M11,T5_M11,U1_M11,ZSPAN_M11,X0_M11,X2_M11,X1_M11
2021-12-02 01:00:00,,0828.7,5.00,0.00,29.7,28.9,00.0,38.6,31.4,09.7,0000.0,0003.23,0000.64,0000.34
2021-12-02 01:01:00,,0828.6,5.01,0.00,29.7,29.0,00.0,38.6,31.4,09.6,0000.0,0003.49,0000.65,0000.34
2021-12-02 01:02:00,,0828.6,5.01,0.00,29.7,29.0,00.0,38.6,31.5,09.5,0000.0,0004.12,0000.69,0000.34
2021-12-02 01:03:00,,0828.4,5.00,0.00,29.8,29.0,00.0,38.6,31.5,09.5,0000.0,0003.38,0000.67,0000.33
2021-12-02 01:04:00,,0828.5,4.99,0.00,29.8,29.0,00.0,38.7,31.5,09.5,0000.0,0002.58,0000.65,0000.33
2021-12-02 01:05:00,,0828.5,5.01,0.00,29.8,29.1,00.0,38.7,31.5,09.5,0000.0,0002.54,0000.65,0000.33
2021-12-02 01:06:00,,0828.5,4.99,0.00,29.8,29.1,00.0,38.7,31.6,09.5,0000.0,0002.65,0000.66,0000.34
2021-12-02 01:07:00,,0828.4,5.00,0.00,29.8,29.1,00.0,38.7,31.6,09.4,0000.0,0002.70,0000.65,0000.33
2021-12-02 01:08:00,,0828.6,5.00,0.00,29.9,29.1,00.0,38.7,31.7,09.4,0000.0,0002.70,0000.64,0000.33
2021-12-02 01:09:00,,0828.5,5.02,0.00,29.9,29.1,00.0,38.7,31.6,09.2,0000.0,0002.73,0000.63,0000.32
2021-12-02 01:10:00,,0828.4,4.99,0.00,29.9,29.2,00.0,38.8,31.7,09.1,0000.0,0002.55,0000.61,0000.32
2021-12-02 01:11:00,,0829.1,5.00,0.00,29.9,29.2,00.0,38.8,31.7,09.1,0000.0,0002.24,0000.60,0000.32
2021-12-02 01:12:00,,0828.8,5.01,0.00,29.9,29.2,00.0,38.8,31.7,09.1,0000.0,0002.15,0000.61,0000.32
2021-12-02 01:13:00,,0828.9,5.01,0.00,30.0,29.2,00.0,38.8,31.7,09.0,0000.0,0002.38,0000.60,0000.30
2021-12-02 01:14:00,,0829.1,5.00,0.00,30.0,29.2,00.0,38.8,31.8,09.0,0000.0,0002.36,0000.58,0000.30
2021-12-02 01:15:00,,0828.9,4.99,0.00,30.0,29.2,00.0,38.8,31.8,09.0,0000.0,0002.36,0000.57,0000.29
2021-12-02 01:16:00,,0829.1,5.00,0.00,30.0,29.3,00.0,38.9,31.8,08.9,0000.0,0002.69,0000.57,0000.29
2021-12-02 01:17:00,,0829.2,5.00,0.00,30.0,29.3,00.0,38.9,31.9,08.9,0000.0,0003.74,0000.57,0000.29
2021-12-02 01:18:00,,0829.2,5.01,0.00,30.1,29.3,00.0,38.9,31.8,08.9,0000.0,0003.70,0000.58,0000.29
2021-12-02 01:19:00,,0829.2,4.99,0.00,30.1,29.3,00.0,38.9,31.9,08.9,0000.0,0003.63,0000.59,0000.29
2021-12-02 01:20:00,,0829.2,4.99,0.00,30.1,29.3,00.0,38.9,31.9,08.9,0000.0,0003.57,0000.58,0000.28
2021-12-02 01:21:00,,0829.3,5.01,0.00,30.1,29.3,00.0,39.0,31.9,08.9,0000.0,0003.51,0000.57,0000.28
2021-12-02 01:22:00,,0829.1,5.02,0.00,30.1,29.3,00.0,39.0,31.9,08.9,0000.0,0003.47,0000.54,0000.27
2021-12-02 01:23:00,,0829.2,4.98,0.00,30.1,29.3,00.0,39.0,31.9,08.8,0000.0,0003.38,0000.54,0000.28
2021-12-02 01:24:00,,0829.1,5.00,0.00,30.1,29.3,00.0,39.0,31.9,08.8,0000.0,0002.51,0000.52,0000.28
2021-12-02 01:25:00,,0828.8,5.00,0.00,30.1,29.3,00.0,39.0,31.9,08.8,0000.0,0002.42,0000.51,0000.28
2021-12-02 01:26:00,,0828.7,5.00,0.00,30.1,29.4,00.0,39.0,31.9,09.0,0000.0,0002.38,0000.51,0000.28
2021-12-02 01:27:00,,0828.7,4.99,0.00,30.2,29.4,00.0,39.0,31.9,09.2,0000.0,0002.03,0000.51,0000.27
2021-12-02 01:28:00,,0828.8,5.01,0.00,30.2,29.4,00.0,39.0,32.0,09.3,0000.0,0001.00,0000.51,0000.28
2021-12-02 01:29:00,,0828.7,4.98,0.00,30.2,29.4,00.0,39.1,32.0,09.4,0000.0,0001.08,0000.52,0000.27
2021-12-02 01:30:00,,0828.7,5.00,0.00,30.2,29.4,00.0,39.1,32.0,09.4,0000.0,0002.61,0000.51,0000.28
2021-12-02 01:31:00,,0828.7,4.99,0.00,30.2,29.4,00.0,39.1,31.9,09.4,0000.0,0004.65,0000.51,0000.29
2021-12-02 01:32:00,,0828.7,5.00,0.00,30.2,29.4,00.0,39.1,31.9,09.4,0000.0,0004.65,0000.52,0000.29
2021-12-02 01:33:00,,0828.7,5.02,0.00,30.2,29.4,00.0,39.1,32.0,09.3,0000.0,0004.65,0000.52,0000.29
2021-12-02 01:34:00,,0828.7,5.00,0.00,30.2,29.4,00.0,39.1,32.0,09.3,0000.0,0005.44,0000.52,0000.28
2021-12-02 01:35:00,,0828.7,4.99,0.00,30.2,29.4,00.0,39.1,32.0,09.3,0000.0,0005.55,0000.51,0000.28
2021-12-02 01:36:00,,0828.7,5.02,0.00,30.2,29.5,00.0,39.1,32.0,09.3,0000.0,0005.58,0000.50,0000.28
2021-12-02 01:37:00,,0828.7,4.99,0.00,30.2,29.5,00.0,39.1,32.0,09.2,0000.0,0005.59,0000.51,0000.28
2021-12-02 01:38:00,,0828.7,5.02,0.00,30.3,29.5,00.0,39.1,32.0,09.1,0000.0,0005.57,0000.52,0000.27
2021-12-02 01:39:00,,0828.9,5.01,0.00,30.3,29.5,00.0,39.2,32.0,08.9,0000.0,0005.79,0000.51,0000.27
2021-12-02 01:40:00,,0829.3,4.98,0.00,30.2,28.3,00.0,39.1,31.7,08.8,0000.0,0006.37,0000.51,0000.26
2021-12-02 01:41:00,,0829.2,5.00,0.00,30.1,26.5,00.0,39.1,31.3,08.8,0000.0,0005.01,0000.47,0000.25
2021-12-02 01:42:00,,0828.7,5.00,0.00,30.0,26.4,00.0,39.1,31.3,09.1,0000.0,0002.82,0000.48,0000.25
2021-12-02 01:43:00,,0828.7,5.00,0.00,29.9,26.8,00.0,39.0,31.3,08.9,0000.0,0002.68,0000.47,0000.25
2021-12-02 01:44:00,,0829.0,4.98,0.00,29.8,27.2,00.0,39.0,31.3,08.9,0000.0,0002.64,0000.46,0000.24
2021-12-02 01:45:00,,0828.7,5.00,0.00,29.8,27.5,00.0,38.9,31.3,08.9,0000.0,0001.98,0000.45,0000.24
2021-12-02 01:46:00,,0828.5,5.01,0.00,29.8,27.8,00.0,38.9,31.3,08.8,0000.0,0001.86,0000.46,0000.24
2021-12-02 01:47:00,,0828.5,4.99,0.00,29.8,28.0,00.0,38.9,31.4,08.8,0000.0,0001.79,0000.45,0000.25
2021-12-02 01:48:00,,0828.5,5.01,0.00,29.8,28.2,00.0,38.9,31.4,08.9,0000.0,0001.78,0000.45,0000.24
2021-12-02 01:49:00,,0828.5,4.99,0.00,29.8,28.3,00.0,38.9,31.4,08.9,0000.0,0001.69,0000.43,0000.24
2021-12-02 01:50:00,,0828.5,4.99,0.00,29.8,28.4,00.0,38.8,31.5,08.9,0000.0,0001.47,0000.42,0000.24
2021-12-02 01:51:00,,0828.4,5.01,0.00,29.8,28.5,00.0,38.8,31.5,08.9,0000.0,0000.78,0000.40,0000.24
2021-12-02 01:52:00,,0828.4,4.99,0.00,29.8,28.6,00.0,38.8,31.5,08.8,0000.0,0000.92,0000.41,0000.24
2021-12-02 01:53:00,,0828.3,5.00,0.00,29.9,28.6,00.0,38.8,31.5,08.7,0000.0,0000.96,0000.41,0000.24
2021-12-02 01:54:00,,0828.2,4.99,0.00,29.9,28.6,00.0,38.8,31.5,08.8,0000.0,0000.98,0000.43,0000.24
2021-12-02 01:55:00,,0828.2,4.99,0.00,29.9,28.7,00.0,38.8,31.5,08.9,0000.0,0000.98,0000.43,0000.25
2021-12-02 01:56:00,,0828.2,5.00,0.00,29.9,28.7,00.0,38.8,31.6,08.9,0000.0,0000.93,0000.43,0000.25
2021-12-02 01:57:00,,0828.2,5.02,0.00,29.9,28.8,00.0,38.8,31.6,09.0,0000.0,0000.73,0000.38,0000.25
2021-12-02 01:58:00,,0828.2,4.99,0.00,29.9,28.8,00.0,38.9,31.5,08.9,0000.0,0000.77,0000.39,0000.26
2021-12-02 01:59:00,,0828.3,5.01,0.00,29.9,28.8,00.0,38.9,31.5,09.0,0000.0,0001.24,0000.38,0000.26
